Regional Weather Roundup
Issued by NWS Nashville, TN

Home | Current Version | Previous Version | Text Only | Print | Product List | Glossary On
Versions: 1 2 3 4 5 6 7 8 9 10 11 12 13 14 15 16 17 18 19 20 21 22 23 24 25 26 27 28 29 30 31 32 33 34 35 36 37 38 39 40 41 42 43 44 45 46 47 48 49 50
000
ASUS44 KOHX 020315
RWROHX
MIDDLE TENNESSEE HOURLY WEATHER ROUNDUP
NATIONAL WEATHER SERVICE NASHVILLE TN
1000 PM CDT WED OCT 01 2014

NOTE: "FAIR" INDICATES FEW OR NO CLOUDS BELOW 12,000 FEET WITH
NO SIGNIFICANT WEATHER AND/OR OBSTRUCTIONS TO VISIBILITY.

* THESE REPORTS ARE NOT UNDER NWS QUALITY CONTROL AND MAY NOT
  REPORT WEATHER SUCH AS PRECIPITATION AND FOG.


TNZ005>011-023>034-057-059-062>066-078-080-020400
...NORTHERN MIDDLE TENNESSEE...

CITY           SKY/WX    TMP DP  RH WIND       PRES   REMARKS
CLARKSVILLE    CLEAR     70  59  68 SE3       29.95S
CROSSVILLE     CLEAR     64  58  80 CALM      30.08R
GALLATIN         N/A     65  58  78 CALM      30.00R
LEBANON        CLEAR     65  57  75 CALM      29.98R
LIVINGSTON     CLEAR     70  57  63 S5        30.04R
NASHVILLE      PTCLDY    71  58  63 S5        29.98S
PORTLAND       CLEAR     64  55  72 CALM      29.99R
SMYRNA         CLEAR     66  60  81 CALM      29.99S
SPARTA         CLEAR     57  55  94 CALM      30.02S
$$
TNZ056-058-060-061-075>077-079-093>097-020400
...SOUTHERN MIDDLE TENNESSEE...

CITY           SKY/WX    TMP DP  RH WIND       PRES   REMARKS
COLUMBIA       CLEAR     64  64 100 SE3       29.97S
FAYETTEVILLE   CLEAR     68  57  68 SE6       30.01S
LEWISBURG      CLEAR     63  59  87 CALM      29.99R
MCMINNVILLE    CLEAR     63  63 100 CALM      30.02S
MURFREESBORO   CLEAR     71  58  63 E3        29.98S
SHELBYVILLE    CLEAR     66  61  82 CALM      30.01S
TULLAHOMA      CLEAR     63  57  82 CALM      30.03S
WINCHESTER     CLEAR     64  61  88 CALM      30.02S
$$


...KEY TO REMARKS...
VSB - VISIBILITY IN MILES
WCI - WIND CHILL INDEX
HX  - HEAT INDEX




USA.gov is the U.S. government's official web portal to all federal, state and local government web resources and services.